Francistown, Botswana

10:09 PM CAT on June 28, 2017 (GMT +0200)
Francistown

Weather History for FBFT - September, 2013

Change the Weather History Date:

Monday, September 2, 2013

  Actual Average Record
Temperature  
Mean Temperature 62 °F -  
Max Temperature 82 °F 83 °F 95 °F (2011)
Min Temperature 42 °F 55 °F 34 °F (2014)
Degree Days  
Heating Degree Days 3    
Growing Degree Days 12 (Base 50)    
Moisture  
Dew Point 38 °F    
Average Humidity 38    
Maximum Humidity 53    
Minimum Humidity 14    
Precipitation  
Precipitation 0.00 in - - ()
Sea Level Pressure  
Sea Level Pressure 30.18 in    
Wind  
Wind Speed 7 mph ()    
Max Wind Speed 22 mph    
Max Gust Speed -    
Visibility 6.0 miles    
Events      
Averages and records for this station are not official NWS values.
T = Trace of Precipitation, MM = Missing Value Source: Averaged Metar Reports

Daily Weather History Graph

Daily Weather History Graph

Search for Another Location

Airport or City:

Trip Planner

Search our weather history database for the weather conditions in past years. The results will help you decide how hot, cold, wet, or windy it might be!

Date:

Astronomy

Sep. 02, 2013 Rise Set
Actual Time 6:18 AM CAT 6:01 PM CAT
Civil Twilight 5:56 AM CAT 6:23 PM CAT
Nautical Twilight 5:30 AM CAT 6:49 PM CAT
Astronomical Twilight 5:04 AM CAT 7:15 PM CAT
Moon 3:56 AM CAT (9/2) 3:31 PM CAT (9/2)
Length of Visible Light 12h 27m
Length of Day
11h 42m
Waning Crescent, 9% of the Moon is Illuminated
Sep 2
Waning Crescent
Sep 5
New
Sep 12
First Quarter
Sep 19
Full
Sep 27
Last Quarter

Hourly Weather History & Observations

Time (CAT) Temp. Windchill Dew Point Humidity Pressure Visibility Wind Dir Wind Speed Gust Speed Precip Events Conditions
12:00 AM 46.4 °F - 24.8 °F 43% 30.18 in - Variable 1.2 mph - N/A   Clear
1:00 AM 44.6 °F - 23.0 °F 43% 30.15 in - Variable 2.3 mph - N/A   Clear
2:00 AM 43 °F - 20 °F 27%  in 6 mi SSE 2.3 mph - -  
3:00 AM 42.8 °F 41.1 °F 21.2 °F 42% 30.15 in - SSE 3.5 mph - N/A   Clear
4:00 AM 42.8 °F 41.1 °F 26.6 °F 53% 30.15 in - ESE 3.5 mph - N/A   Clear
6:00 AM 42.8 °F - 26.6 °F 53% 30.18 in - Variable 2.3 mph - N/A   Clear
7:00 AM 44.6 °F - 26.6 °F 49% 30.18 in - Variable 2.3 mph - N/A   Clear
8:00 AM 55.4 °F - 32.0 °F 41% 30.21 in - SE 5.8 mph - N/A   Clear
9:00 AM 68.0 °F - 48.2 °F 49% 30.24 in - ENE 21.9 mph - N/A   Clear
10:00 AM 71.6 °F - 46.4 °F 41% 30.24 in - East 13.8 mph - N/A   Clear
11:00 AM 73.4 °F - 46.4 °F 38% 30.24 in - East 19.6 mph - N/A   Clear
12:00 PM 77.0 °F - 44.6 °F 32% 30.21 in - ESE 21.9 mph - N/A   Clear
1:00 PM 78.8 °F - 44.6 °F 30% 30.18 in - East 12.7 mph - N/A   Clear
2:00 PM 82 °F - 41 °F 14%  in 6 mi East 16.1 mph - -  
3:00 PM 82.4 °F - 42.8 °F 25% 30.12 in - SE 11.5 mph - N/A   Clear
4:00 PM 82.4 °F - 41.0 °F 23% 30.12 in - ESE 12.7 mph - N/A   Clear
5:00 PM 80.6 °F - 41.0 °F 24% 30.12 in - ESE 12.7 mph - N/A   Clear
6:00 PM 77.0 °F - 44.6 °F 32% 30.15 in - ESE 12.7 mph - N/A   Clear
7:00 PM 73.4 °F - 46.4 °F 38% 30.15 in - ESE 11.5 mph - N/A   Clear
8:00 PM 71.6 °F - 44.6 °F 38% 30.18 in - ESE 18.4 mph - N/A   Clear
9:00 PM 68.0 °F - 44.6 °F 43% 30.21 in - ESE 11.5 mph - N/A   Clear
10:00 PM 68.0 °F - 46.4 °F 46% 30.21 in - ESE 9.2 mph - N/A   Clear
11:00 PM 66.2 °F - 48.2 °F 52% 30.21 in - ESE 6.9 mph - N/A   Clear